TimeEST,TemperatureF,Dew PointF,Humidity,Sea Level PressureIn,VisibilityMPH,Wind Direction,Wind SpeedMPH,Gust SpeedMPH,PrecipitationIn,Events,Conditions,WindDirDegrees,DateUTC
12:54 AM,28.9,25.0,85,30.43,7.0,Calm,Calm,-,N/A,,Clear,0,2012-11-19 05:54:00
1:54 AM,28.0,24.1,85,30.42,6.0,Calm,Calm,-,N/A,,Clear,0,2012-11-19 06:54:00
2:54 AM,27.0,24.1,89,30.41,6.0,Calm,Calm,-,N/A,,Clear,0,2012-11-19 07:54:00
3:54 AM,28.0,25.0,88,30.40,7.0,Calm,Calm,-,N/A,,Clear,0,2012-11-19 08:54:00
4:54 AM,25.0,21.9,88,30.41,7.0,Calm,Calm,-,N/A,,Clear,0,2012-11-19 09:54:00
5:54 AM,26.1,23.0,88,30.42,7.0,Calm,Calm,-,N/A,,Clear,0,2012-11-19 10:54:00
6:54 AM,24.1,21.0,88,30.42,7.0,Calm,Calm,-,N/A,,Clear,0,2012-11-19 11:54:00
7:54 AM,26.1,23.0,88,30.42,6.0,Calm,Calm,-,N/A,,Clear,0,2012-11-19 12:54:00
8:54 AM,36.0,30.0,79,30.42,6.0,Calm,Calm,-,N/A,,Haze,0,2012-11-19 13:54:00
9:54 AM,41.0,32.0,70,30.40,9.0,South,3.5,-,N/A,,Clear,170,2012-11-19 14:54:00
10:54 AM,44.1,32.0,63,30.39,10.0,South,6.9,-,N/A,,Clear,170,2012-11-19 15:54:00
11:54 AM,46.9,32.0,56,30.36,10.0,Calm,Calm,-,N/A,,Clear,0,2012-11-19 16:54:00
12:54 PM,50.0,32.0,50,30.34,10.0,Calm,Calm,-,N/A,,Clear,0,2012-11-19 17:54:00
1:54 PM,52.0,32.0,47,30.31,10.0,East,3.5,-,N/A,,Clear,100,2012-11-19 18:54:00
2:54 PM,54.0,33.1,45,30.30,10.0,Calm,Calm,-,N/A,,Clear,0,2012-11-19 19:54:00
3:54 PM,54.0,30.0,40,30.29,10.0,Calm,Calm,-,N/A,,Clear,0,2012-11-19 20:54:00
4:54 PM,50.0,33.1,52,30.28,10.0,Calm,Calm,-,N/A,,Clear,0,2012-11-19 21:54:00
5:54 PM,50.0,33.1,52,30.27,10.0,East,4.6,-,N/A,,Clear,100,2012-11-19 22:54:00
6:54 PM,43.0,33.1,68,30.28,10.0,Calm,Calm,-,N/A,,Clear,0,2012-11-19 23:54:00
7:54 PM,45.0,33.1,63,30.27,10.0,SE,3.5,-,N/A,,Clear,140,2012-11-20 00:54:00
8:54 PM,39.0,32.0,76,30.25,10.0,Calm,Calm,-,N/A,,Clear,0,2012-11-20 01:54:00
9:54 PM,37.0,32.0,82,30.24,8.0,Calm,Calm,-,N/A,,Clear,0,2012-11-20 02:54:00
10:54 PM,35.1,30.9,85,30.23,8.0,Calm,Calm,-,N/A,,Clear,0,2012-11-20 03:54:00
11:54 PM,36.0,32.0,86,30.22,7.0,Calm,Calm,-,N/A,,Clear,0,2012-11-20 04:54:00